RBSP B

Last updated on Nov. 22, 2019, 4:20 a.m. UTC

1 38753U 12046B   19324.76180293  .00001080  00000-0  23830-3 0  9992
2 38753   9.8637 141.2787 6937532 215.6486  67.5384  2.72732855 70212
UTC
Height (km)
Latitude
Longitude
Inclination
Orbital Period
UTC large
Height (km)
Speed (km/s)
/
Latitude / Longitude
Inclination (degrees)
Orbital Period (minutes)
Azimuth
Elevation
Range (km)
Doppler Factor
iOS Compass Heading
iOS Angle

Next 30 passes for location: Hong Kong

Rise time Rise Azimuth (degrees) Set time Set Azimuth (degrees) Duration Max altitude (degrees)

No matching passes for this satellites